Location: Pedimozza
(42.0500°N, 9.3500°E)
Time: 05:41:33
(UTC+00:00)

COSMOS 2406 - Pass Details

Date: 19 August 2019
Orbit: 842 x 865 km, 71.0° (Epoch: 20 September)

Event Time Altitude Azimuth Distance (km) Brightness Sun altitude
Exits shadow 19:38:18 - 177° (S) 3,163 5.8 -14.4°
Reaches altitude 10° 19:40:16 10° 171° (S) 2,458 5.2 -14.7°
Maximum altitude 19:45:24 37° 105° (ESE) 1,294 3.7 -15.5°
Drops below altitude 10° 19:50:35 10° 40° (NE) 2,486 5.6 -16.3°
Sets 19:53:12 0° 32° (NNE) 3,430 6.4 -16.7°
